Location: Newark
(21.1200°N, 73.4000°E)
Time: 04:49:44
(UTC+00:00)

SR - All Passes

Search period start: 28 January 2020 00:00
Search period end: 07 February 2020 00:00
Orbit: 574 x 882 km, 66.7° (Epoch: 27 January)

Date Brightness Start Highest point End Pass type
(mag) Time Alt. Az. Time Alt. Az. Time Alt. Az.
28 Jan - 02:10:27 10° NNW 02:15:31 54° ENE 02:20:07 10° SE daylight
28 Jan - 14:47:16 10° SSE 14:51:55 27° ESE 14:56:45 10° NE visible
28 Jan - 16:28:57 10° WSW 16:33:49 29° WNW 16:38:52 10° N visible
29 Jan - 01:21:39 10° N 01:25:40 22° ENE 01:29:25 10° ESE visible
29 Jan - 03:03:32 10° NW 03:07:34 24° WSW 03:11:20 10° SSW daylight
29 Jan - 14:00:59 10° ESE 14:02:35 11° ESE 14:04:13 10° E visible
29 Jan - 15:38:27 10° SSW 15:44:01 63° WNW 15:49:53 10° NNE visible
30 Jan - 02:13:05 10° NNW 02:18:09 64° WSW 02:22:44 10° S daylight
30 Jan - 14:48:56 10° S 14:54:25 58° ESE 15:00:11 10° NNE visible
30 Jan - 16:33:45 10° W 16:36:50 14° WNW 16:39:57 10° NNW visible
31 Jan - 01:23:32 10° N 01:28:31 49° ENE 01:33:03 10° SE daylight
31 Jan - 14:00:26 10° SSE 14:04:58 25° ESE 14:09:41 10° NE visible
31 Jan - 15:41:51 10° SW 15:46:50 31° WNW 15:52:01 10° N visible
01 Feb - 00:34:51 10° NNE 00:38:39 21° ENE 00:42:14 10° ESE visible
01 Feb - 02:16:27 10° NW 02:20:36 26° WSW 02:24:28 10° SSW daylight
01 Feb - 13:14:59 10° ESE 13:15:39 10° ESE 13:16:19 10° E visible
01 Feb - 14:51:27 10° SSW 14:57:04 68° WNW 15:02:57 10° NNE visible
02 Feb - 01:26:07 10° NNW 01:31:10 70° WSW 01:35:45 10° SSE daylight
02 Feb - 14:02:00 10° S 14:07:28 54° ESE 14:13:12 10° NNE visible
02 Feb - 15:46:27 10° W 15:49:49 16° WNW 15:53:15 10° NNW visible
03 Feb - 00:36:38 10° N 00:41:31 45° ENE 00:45:59 10° SE visible
03 Feb - 02:21:51 10° W 02:22:56 11° WSW 02:23:59 10° WSW daylight
03 Feb - 13:13:38 10° SSE 13:18:02 24° ESE 13:22:36 10° NE visible
03 Feb - 14:54:46 10° SW 14:59:52 33° WNW 15:05:09 10° N visible
03 Feb - 23:48:03 10° NNE 23:51:38 19° ENE 23:55:01 10° ESE visible
04 Feb - 01:29:23 10° NW 01:33:39 28° WSW 01:37:35 10° SSW daylight
04 Feb - 14:04:27 10° SSW 14:10:06 73° WNW 14:16:01 10° NNE visible
05 Feb - 00:39:09 10° NNW 00:44:12 76° WSW 00:48:47 10° SSE visible
05 Feb - 13:15:05 10° S 13:20:31 50° ESE 13:26:12 10° NE visible
05 Feb - 14:59:12 10° W 15:02:49 17° WNW 15:06:31 10° NNW visible
05 Feb - 23:49:44 10° N 23:54:31 41° ENE 23:58:54 10° SE visible
06 Feb - 01:34:18 10° W 01:35:58 12° WSW 01:37:37 10° SW daylight
06 Feb - 12:26:50 10° SSE 12:31:06 22° ESE 12:35:29 10° ENE daylight
06 Feb - 14:07:40 10° SW 14:12:53 36° WNW 14:18:17 10° N visible
06 Feb - 23:01:17 10° NNE 23:04:37 17° ENE 23:07:47 10° ESE visible
